GFSMA_850_dewp_114.txt.gz
Dewpoint
10 9 9 8 9 6 -3 7 10 10 9 8 8 6 5 5 4 -4 -6 -4 0 -7 -4 -4 -7 -8 -11 -10 -10 -12 -13 -13 -13 -15 -16 -18 -20 -21 -23 -24 -25 -25 -25
11 10 10 8 8 6 -5 4 10 10 7 7 7 7 5 6 5 2 -5 -4 -6 -9 -9 -8 -7 -9 -10 -10 -11 -11 -13 -13 -14 -15 -16 -17 -18 -19 -20 -21 -21 -21 -21
11 10 10 9 6 5 -2 5 9 7 6 7 7 6 6 6 6 4 -3 -5 -7 -8 -9 -2 -6 -8 -8 -8 -9 -9 -10 -11 -12 -13 -14 -15 -16 -16 -15 -16 -16 -15 -15
11 10 10 9 7 7 0 6 8 6 6 6 6 6 6 6 6 5 3 -1 -5 -8 -8 -7 -6 -9 -7 -7 -7 -7 -7 -7 -8 -8 -8 -10 -12 -13 -13 -13 -13 -11 -12
11 10 11 10 8 9 -0 4 8 6 6 6 6 7 6 6 6 6 5 0 -4 -5 -6 -7 -8 -8 -6 -6 -5 -5 -5 -4 -5 -5 -5 -5 -6 -7 -8 -8 -8 -7 -8
10 10 10 10 6 9 1 1 8 6 6 6 6 7 7 7 7 6 5 1 3 0 -1 -4 -5 -5 -5 -5 -4 -4 -3 -3 -2 -2 -2 -2 -2 -2 -2 -3 -3 -4 -4
10 11 10 10 7 9 -0 -3 7 6 6 6 7 7 7 7 6 6 6 6 5 5 5 4 2 1 -1 -1 0 0 -0 0 1 1 1 1 0 0 0 0 0 0 0
10 10 10 10 6 9 3 -6 5 6 6 6 7 7 7 7 7 7 7 6 6 6 6 6 4 3 3 3 2 2 2 2 2 3 3 3 3 3 3 3 3 3 2
10 10 10 10 9 9 3 -7 -2 3 6 7 7 6 7 7 7 7 7 7 6 6 6 5 4 4 4 4 4 4 4 4 4 4 4 4 4 4 4 4 4 4 5
10 9 9 9 8 9 3 -7 -5 0 4 6 7 6 5 5 6 7 6 6 5 5 4 5 3 3 3 3 4 4 4 4 5 5 5 4 4 4 5 5 6 6 6
10 10 9 9 9 9 7 -6 -7 -4 3 6 6 6 6 5 4 3 4 4 5 3 3 3 3 3 3 3 3 3 4 5 5 5 5 5 5 5 5 5 5 6 6
10 10 9 8 7 9 9 -2 -6 -6 -1 5 5 5 6 5 3 3 2 3 3 3 3 2 2 3 3 4 3 4 4 4 5 5 5 6 6 6 5 5 5 6 6
11 10 9 9 9 10 9 7 -3 -4 -5 4 5 3 7 6 3 3 4 5 4 4 5 5 4 3 4 4 4 4 4 5 5 5 6 7 7 6 6 6 6 7 7
10 10 10 10 10 9 9 10 1 -1 -3 -1 4 7 7 5 4 4 4 5 5 5 4 4 5 5 5 6 5 6 7 6 7 7 7 7 7 7 7 7 7 7 7
10 10 11 10 10 10 9 9 8 1 3 4 7 8 7 7 5 4 5 5 6 6 6 6 6 6 6 7 7 8 8 7 7 7 7 7 7 8 6 7 7 7 7
9 9 10 10 10 10 10 10 9 5 4 6 6 8 9 7 6 5 6 6 7 7 7 5 6 6 7 7 7 8 8 8 8 7 7 7 7 7 7 6 6 6 6
10 10 10 10 10 10 10 10 10 9 6 6 7 7 8 8 8 7 6 6 7 7 7 7 6 7 7 7 8 8 8 8 7 7 7 7 7 6 6 5 5 4 4
10 10 10 10 10 10 10 10 10 10 9 8 8 8 8 8 7 7 7 7 7 7 7 6 7 7 7 7 7 7 7 6 6 5 6 5 5 5 3 3 2 1 -0
9 10 9 9 9 10 10 10 10 9 9 8 9 8 8 8 7 7 7 7 6 7 7 7 7 7 7 7 5 5 5 5 4 3 3 1 -1 -1 -3 -4 -5 -6 -7
9 9 9 9 9 10 9 9 10 9 9 9 8 8 8 7 8 7 7 6 7 7 7 7 7 6 5 5 5 4 3 2 0 -1 -2 -4 -9 -13 -18 -24 -30 -32 -34
9 9 8 8 8 9 9 9 9 9 9 9 8 7 8 8 7 7 7 7 7 7 7 6 5 4 3 2 1 2 -0 -3 -7 -14 -21 -30 -35 -38 -40 -40 -39 -39 -39
9 9 8 8 8 8 8 9 9 9 8 8 7 7 7 7 7 7 7 7 6 6 5 4 3 2 0 -0 -2 -8 -17 -29 -34 -34 -38 -40 -40 -38 -38 -39 -38 -38 -38
8 8 8 8 8 8 8 8 8 8 8 8 7 7 6 6 6 6 5 5 3 3 2 1 0 -1 -3 -7 -20 -29 -35 -37 -37 -37 -38 -38 -36 -38 -38 -38 -38 -38 -36
7 7 7 7 7 8 8 8 8 8 7 7 7 6 6 5 3 2 2 1 1 -0 -1 -3 -10 -21 -31 -32 -35 -38 -38 -37 -37 -37 -36 -33 -35 -34 -35 -35 -35 -34 -33
8 8 7 7 8 8 8 8 8 8 8 7 5 3 2 1 -1 -1 -1 -1 -2 -5 -14 -28 -35 -36 -37 -37 -37 -36 -37 -37 -38 -37 -34 -32 -31 -31 -31 -30 -29 -31 -31
7 7 7 7 7 7 7 8 8 8 7 5 2 -0 -1 -1 -2 -3 -3 -8 -14 -21 -29 -32 -36 -37 -36 -36 -36 -36 -36 -36 -34 -32 -30 -30 -30 -29 -25 -25 -26 -29 -29

GFSMA_850_dewp_117.txt.gz
Dewpoint
11 9 8 8 9 9 7 6 3 7 9 9 9 8 6 -2 -6 -2 5 6 5 -3 -6 1 0 -2 -1 -5 -6 -8 -8 -6 -12 -15 -16 -18 -19 -21 -22 -23 -22 -21 -20
11 9 8 9 8 7 8 3 -1 9 10 10 8 7 5 3 -1 -2 1 -0 -8 -8 4 8 7 6 -4 -8 -10 -11 -13 -13 -14 -15 -16 -17 -18 -18 -19 -18 -17 -16 -14
11 10 10 10 9 8 8 4 5 10 10 9 8 8 5 5 4 0 -4 -4 -5 -1 5 4 2 -3 -7 -8 -9 -10 -11 -12 -12 -13 -14 -15 -16 -16 -15 -14 -13 -12 -11
11 11 11 10 10 9 9 2 2 10 10 7 8 7 6 6 5 3 -3 -3 3 6 -1 -2 -4 -7 -7 -7 -7 -7 -7 -8 -8 -8 -8 -9 -11 -11 -12 -11 -10 -9 -9
11 11 11 10 10 8 9 2 4 7 9 7 8 7 6 6 6 5 3 -1 -3 0 2 -6 -7 -8 -7 -6 -6 -5 -5 -5 -5 -5 -4 -4 -5 -5 -6 -6 -7 -6 -6
10 10 10 10 10 9 10 2 4 10 8 6 7 7 6 6 6 6 5 2 -1 -2 -4 -4 -5 -6 -5 -5 -4 -4 -3 -2 -2 -2 -2 -2 -1 -1 -1 -0 -0 -0 0
10 10 11 10 11 10 9 5 5 9 6 7 7 7 6 7 7 6 6 2 3 2 0 -1 -5 -3 -4 -4 -2 -1 -1 -0 3 4 3 2 2 2 2 2 3 3 3
10 10 11 10 10 10 8 6 3 8 6 6 7 8 7 7 7 6 6 6 5 5 5 4 3 3 4 3 1 1 1 2 2 3 4 6 7 5 4 4 4 4 4
10 10 10 11 10 10 9 7 4 8 6 6 6 7 8 8 8 7 6 6 6 6 5 5 4 4 5 5 4 4 4 4 4 4 4 5 4 4 5 5 5 5 6
9 10 10 10 10 10 8 8 -1 7 6 6 7 6 6 6 7 7 7 6 6 6 6 5 4 5 4 4 4 4 4 4 4 4 5 5 5 5 6 6 5 6 6
10 10 10 10 10 10 7 8 -2 6 7 6 6 7 6 5 4 5 7 6 6 5 4 4 4 4 4 3 4 4 4 4 4 4 5 5 5 5 5 5 5 6 6
10 10 10 10 10 8 7 9 -1 -3 4 6 5 6 6 6 4 4 3 6 5 3 4 3 3 3 3 3 4 4 5 5 5 5 5 5 6 6 6 7 6 6 6
10 10 10 9 10 10 8 9 3 -5 -3 2 4 5 6 6 4 3 2 2 4 4 3 3 4 4 4 4 4 5 5 5 5 5 5 5 5 5 6 7 7 7 6
10 9 9 9 9 9 9 9 6 -4 -5 -2 -0 4 6 6 5 4 3 3 4 4 4 4 4 4 5 5 4 5 5 6 7 7 6 6 7 7 7 8 8 8 7
10 11 10 10 8 7 6 6 10 5 -5 -5 -4 1 6 6 6 5 4 5 5 5 5 4 4 5 6 6 6 7 7 6 8 8 7 7 7 7 7 7 7 7 7
10 10 10 10 9 9 6 5 9 10 4 -4 -5 -3 5 6 6 6 6 6 5 5 6 5 5 6 5 7 7 7 7 7 8 8 7 8 7 6 6 6 7 6 5
9 9 10 10 10 10 10 10 10 10 10 2 -2 -1 4 8 7 7 7 7 6 6 6 5 7 6 7 7 7 7 7 7 7 7 7 7 6 6 5 4 4 4 3
9 10 10 10 10 10 10 10 10 9 10 7 3 3 4 5 5 6 8 7 7 6 7 7 7 7 7 7 7 6 6 5 5 5 4 4 2 2 1 -1 -1 -4 -6
9 10 9 9 10 10 10 10 10 9 10 9 9 5 5 6 6 7 8 7 7 7 7 7 7 7 6 6 5 4 3 3 2 3 1 0 -0 -4 -6 -15 -26 -35 -40
9 9 9 9 9 9 10 10 9 10 9 9 8 8 6 6 7 8 7 7 7 7 7 7 7 7 6 5 3 2 2 1 -1 -3 -8 -14 -20 -34 -39 -40 -40 -40 -40
8 8 8 9 9 9 9 9 9 9 9 9 8 8 8 8 8 8 7 7 7 7 7 7 6 5 3 2 1 0 -1 -4 -11 -17 -30 -38 -40 -40 -40 -40 -40 -40 -40
8 9 8 8 8 8 9 9 8 9 9 9 9 8 7 8 7 7 7 7 7 7 6 5 4 2 0 -1 -4 -6 -16 -35 -37 -37 -40 -40 -39 -39 -40 -40 -40 -40 -38
8 8 8 8 8 8 8 8 8 9 8 8 8 8 7 7 7 7 7 7 6 5 3 2 1 -1 -3 -12 -32 -39 -39 -39 -39 -38 -39 -39 -38 -38 -39 -39 -39 -38 -36
8 8 8 8 8 8 8 8 8 8 8 8 7 7 7 7 5 5 5 4 3 1 -0 -2 -8 -14 -17 -26 -34 -39 -38 -38 -36 -30 -37 -35 -29 -30 -37 -37 -38 -36 -34
8 7 7 7 8 8 7 8 8 8 7 7 6 5 4 3 2 1 2 1 -1 -2 -7 -12 -18 -32 -35 -31 -32 -36 -38 -38 -38 -31 -31 -34 -29 -26 -30 -30 -32 -31 -32
8 7 7 7 7 8 7 7 7 7 7 6 4 2 0 1 -2 -2 -2 -4 -6 -11 -31 -27 -12 -13 -22 -38 -38 -38 -38 -37 -35 -29 -29 -32 -31 -25 -19 -19 -24 -29 -26

GFSMA_850_dewp_123.txt.gz
Dewpoint
12 12 12 11 11 11 10 8 7 7 10 8 8 8 9 8 7 7 8 6 7 8 8 6 -2 7 4 6 6 1 -7 -10 -11 -12 -14 -17 -19 -21 -21 -21 -20 -18 -15
13 12 12 11 11 11 9 9 7 9 10 9 8 8 8 8 7 7 8 8 8 7 7 7 8 7 7 4 0 -6 -9 -11 -13 -15 -16 -17 -19 -19 -20 -19 -17 -14 -12
12 13 11 11 11 10 9 8 10 8 9 9 8 9 8 8 6 7 8 8 7 6 7 7 5 7 4 -1 -10 -11 -12 -12 -13 -14 -15 -16 -16 -16 -15 -15 -13 -11 -10
12 12 12 11 11 10 10 10 10 10 10 9 10 9 8 7 7 7 7 7 7 7 6 6 7 6 4 -7 -10 -11 -12 -12 -12 -13 -13 -14 -14 -14 -13 -13 -11 -9 -8
12 12 12 11 12 10 10 10 10 10 8 9 9 9 8 7 7 6 6 7 7 7 7 6 7 3 -4 -7 -8 -7 -8 -8 -8 -8 -8 -8 -9 -10 -9 -8 -6 -4 -2
12 12 12 12 12 11 11 10 10 9 9 8 9 9 7 7 7 7 6 6 6 7 7 6 -2 -3 -6 -6 -6 -5 -5 -5 -5 -5 -4 -4 -4 -3 -2 -0 1 1 2
12 12 12 12 12 11 11 10 10 8 8 9 8 8 7 8 8 7 6 6 6 7 6 8 3 6 -7 -6 -5 -5 -3 -0 -2 -2 -1 0 2 2 3 4 4 4 4
12 11 11 10 10 11 10 10 10 9 8 9 9 8 8 8 8 8 7 6 6 5 6 7 7 6 6 -5 -6 -5 -2 -0 0 3 6 7 6 6 6 6 6 5 5
11 11 10 10 11 11 11 10 10 9 8 8 8 8 8 8 9 8 8 7 6 6 6 6 7 6 6 6 5 -0 0 2 4 5 6 6 6 6 6 6 6 6 7
9 11 10 11 11 11 11 10 10 9 8 9 8 8 7 6 8 9 8 7 7 6 6 6 7 7 7 7 7 8 6 5 5 5 5 5 5 5 5 5 5 6 6
10 11 11 11 11 11 10 10 10 10 8 9 8 8 6 6 6 7 8 8 7 7 7 7 7 8 5 6 9 9 6 5 4 5 5 4 4 4 5 5 5 5 5
11 11 11 10 10 10 10 10 10 10 6 9 8 8 7 6 7 7 7 7 7 7 7 7 8 8 7 8 8 8 5 4 5 5 5 5 5 5 5 5 5 6 6
10 10 10 9 10 10 10 10 10 10 6 9 8 8 8 6 7 6 6 7 7 7 6 7 8 6 8 8 8 5 4 4 4 5 5 5 5 6 6 7 7 7 7
9 9 8 10 8 9 10 10 10 10 8 8 8 8 8 7 6 6 6 7 7 7 8 8 8 9 8 7 5 4 4 5 5 5 5 5 6 6 6 7 8 7 7
10 9 9 9 10 9 10 9 9 9 9 8 7 8 8 7 6 6 6 6 7 8 8 8 8 7 5 5 4 4 5 5 6 6 6 6 7 6 6 7 7 7 7
11 10 10 10 10 10 9 9 9 9 9 8 8 7 8 7 6 6 6 7 7 6 7 8 6 5 5 5 5 5 6 6 6 6 7 6 7 7 6 6 5 4 3
10 10 10 10 10 10 9 9 9 9 9 9 8 7 7 8 7 7 7 7 5 5 5 7 6 6 6 6 6 6 7 7 6 7 7 7 6 5 5 4 2 1 -2
10 10 10 10 10 10 10 9 9 9 9 9 6 8 7 8 8 8 7 6 5 5 4 5 6 7 7 7 7 6 6 6 6 6 5 5 4 3 2 0 -2 -8 -26
9 10 10 10 10 10 10 10 9 9 9 6 8 8 7 7 7 7 7 6 5 5 4 5 5 6 5 6 6 5 5 4 5 3 2 2 1 -1 -4 -18 -33 -39 -40
9 9 9 10 10 10 10 10 10 9 8 7 8 9 7 8 6 6 4 4 4 6 6 5 5 6 6 6 4 4 3 3 3 1 -0 -2 -6 -17 -28 -38 -27 -27 -37
9 9 9 9 9 9 10 10 9 9 9 9 9 9 8 7 7 6 4 6 3 5 7 6 5 6 6 4 4 2 1 0 -1 -4 -6 -18 -30 -21 -15 -22 -33 -40 -41
9 9 9 9 9 9 9 9 9 9 9 9 9 8 8 8 8 7 6 3 7 7 7 6 6 6 5 3 2 1 -0 -2 -11 -17 -22 -21 -9 -17 -36 -40 -40 -40 -40
8 8 8 9 9 9 8 9 7 9 9 8 9 9 8 8 8 8 6 5 7 7 6 6 6 5 4 2 -0 -3 -9 -14 -16 -11 -8 -23 -24 -39 -40 -39 -39 -38 -32
8 8 8 8 9 8 8 9 9 9 8 8 8 7 7 7 7 7 6 6 6 6 5 5 3 3 0 -2 -10 -14 -11 -6 -7 -9 -31 -39 -32 -38 -38 -36 -33 -30 -27
8 8 9 8 8 8 8 8 9 8 8 7 7 6 6 7 6 6 7 7 6 4 2 1 0 -3 -8 -8 -7 -4 -7 -14 -25 -21 -34 -39 -24 -37 -38 -30 -27 -24 -24
9 8 8 8 8 8 8 8 8 8 7 7 5 5 5 6 6 5 6 6 5 2 -1 -3 -6 -6 -4 -5 -13 -19 -17 -35 -35 -15 -31 -36 -30 -29 -31 -27 -21 -21 -22

GFSMA_850_dewp_129.txt.gz
Dewpoint
6 8 11 11 11 11 10 9 8 7 7 7 7 4 6 9 9 8 7 7 6 -0 -9 1 3 2 -1 -3 -4 -3 -6 -5 -8 -8 -11 -14 -19 -22 -23 -21 -17 -13 -10
8 10 11 12 12 11 11 10 9 8 8 8 8 7 8 9 9 8 7 7 6 -2 -9 -5 1 6 7 3 -5 -9 -6 -1 -8 -11 -12 -16 -20 -22 -21 -18 -13 -10 -8
9 12 11 11 12 11 11 11 10 9 8 8 10 7 8 9 9 7 6 6 4 -2 2 1 1 7 8 2 -3 -10 -10 -6 -13 -14 -14 -17 -19 -19 -18 -15 -12 -9 -7
11 13 13 12 12 12 11 11 10 9 9 9 8 6 8 8 7 6 6 6 -2 1 4 4 3 5 -1 -8 -9 -12 -12 -13 -14 -15 -15 -16 -15 -15 -15 -13 -11 -8 -6
13 13 13 13 13 12 12 11 11 10 9 9 9 9 8 9 8 7 7 6 2 1 3 6 2 2 -8 -12 -11 -12 -12 -13 -14 -14 -14 -14 -14 -14 -13 -12 -9 -6 -3
13 13 13 13 13 13 12 12 11 11 10 9 9 10 8 9 7 6 6 7 4 3 2 3 1 -4 -8 -10 -10 -11 -12 -12 -12 -11 -11 -10 -9 -9 -7 -5 -2 1 3
13 13 13 13 13 13 12 12 11 11 9 9 10 10 9 9 7 6 6 7 5 2 1 2 -1 -7 -8 -8 -8 -8 -6 -7 -7 -7 -6 -4 -3 -2 0 1 3 5 5
13 13 13 13 13 13 12 12 12 11 10 9 9 9 9 8 7 7 7 6 6 5 5 1 -1 -5 -8 -7 -6 -6 -4 4 1 -3 -2 1 2 3 4 5 5 6 6
12 13 13 13 13 12 12 11 11 10 10 10 9 8 9 9 7 7 7 7 7 6 6 5 6 2 -7 -7 -5 -5 -4 0 8 8 7 7 7 7 8 7 7 6 6
12 12 12 12 12 12 12 11 10 10 10 9 10 9 7 7 8 7 6 7 7 6 6 6 7 5 -4 5 6 1 -3 -1 1 6 6 6 6 5 5 5 4 4 5
11 11 13 12 12 12 12 11 9 11 10 10 10 9 7 8 7 7 7 6 6 6 6 7 7 5 4 7 7 7 4 2 3 4 5 5 4 4 5 5 5 5 5
11 11 12 12 12 11 12 10 10 11 11 11 10 10 7 8 7 7 7 7 6 6 5 6 6 6 7 7 7 7 6 5 6 5 4 5 5 5 5 5 5 6 6
11 11 11 11 11 11 11 11 10 10 10 10 11 10 9 8 7 7 6 6 6 6 6 6 6 6 6 6 7 7 8 7 8 6 4 5 5 5 6 6 6 7 7
11 11 11 11 11 11 11 11 10 10 11 11 10 10 10 8 8 7 5 5 7 8 6 7 6 6 6 6 8 7 7 8 8 7 5 5 5 6 6 7 7 7 7
11 11 11 11 11 10 10 10 11 10 11 10 10 10 10 9 8 7 6 5 5 8 7 8 8 8 7 7 7 6 7 8 8 7 5 5 5 6 6 6 7 6 6
11 11 11 11 11 10 11 11 11 10 10 10 10 10 10 9 9 9 7 6 6 6 8 8 8 8 8 8 7 7 8 8 8 6 5 5 6 6 6 7 6 5 5
11 11 10 10 10 11 11 10 9 9 9 10 9 10 10 9 9 9 9 7 7 6 8 8 8 8 8 8 8 8 8 8 7 5 5 5 6 6 6 5 4 2 1
11 11 10 10 10 9 9 9 9 9 9 9 10 9 9 9 9 8 9 9 7 7 6 8 8 8 8 8 7 8 8 7 5 6 6 6 6 4 3 2 1 -3 -16
12 11 11 10 10 9 9 9 9 9 9 9 9 9 9 9 8 8 9 9 7 8 7 6 7 8 8 7 7 7 6 6 6 6 5 5 3 2 1 -2 -13 -6 -5
11 11 11 11 9 8 9 9 9 9 9 9 9 9 9 9 8 8 9 9 7 7 7 7 7 8 8 7 6 6 6 6 5 4 3 1 1 -0 -4 -7 -4 -14 -26
11 11 10 10 9 8 9 10 10 10 10 9 9 9 9 9 9 9 9 8 9 7 7 7 7 7 6 6 6 6 5 4 3 2 1 -1 -2 -6 -6 -8 -13 -9 -24
11 11 10 9 9 9 9 9 9 10 9 9 9 9 9 9 9 9 8 8 8 7 7 6 6 6 6 6 6 5 4 4 2 1 -1 -3 -8 -8 -7 -7 -13 -36 -37
11 10 9 9 9 10 9 10 9 10 9 9 9 9 9 9 9 9 8 7 7 7 5 5 5 6 5 5 2 3 4 2 1 -1 -3 -10 -5 -8 -10 -11 -33 -36 -31
10 9 9 8 8 8 9 9 9 9 9 9 9 9 8 9 9 9 7 6 8 6 4 6 6 6 5 5 4 5 2 0 -2 -5 -7 -3 -5 -5 -19 -30 -30 -28 -24
10 9 8 8 8 8 9 9 9 9 9 9 9 9 8 8 9 8 7 8 8 8 7 7 7 7 6 6 4 2 -0 -1 -3 -3 -3 -4 -8 -24 -28 -26 -23 -21 -22
10 9 9 9 9 9 9 8 8 8 8 9 8 8 6 6 8 8 7 8 8 7 7 7 7 6 5 3 1 -1 -1 -2 -2 -4 -5 -14 -32 -35 -25 -24 -21 -20 -18

GFSMA_850_dewp_132.txt.gz
Dewpoint
5 7 8 9 11 11 10 8 8 7 6 6 7 4 7 7 8 9 10 8 7 6 3 -1 2 5 -1 -6 -6 -5 -1 -1 1 -0 -5 -14 -20 -23 -23 -19 -15 -11 -8
5 7 8 10 11 11 11 10 9 8 7 7 7 7 8 7 8 9 9 7 7 6 3 -2 7 6 -0 -4 -3 -4 -3 1 2 -4 -9 -17 -20 -22 -20 -17 -12 -9 -7
6 7 8 9 10 11 11 11 10 9 9 9 8 8 8 8 9 9 8 7 7 6 3 -5 5 8 3 -4 -3 -5 -3 0 -6 -7 -12 -18 -21 -20 -18 -15 -11 -8 -6
8 9 10 10 10 11 11 11 11 9 9 9 9 9 9 9 9 9 8 7 6 5 0 1 7 7 5 4 -2 -2 -2 -7 -9 -12 -16 -19 -18 -18 -16 -14 -11 -9 -6
11 11 12 12 12 12 11 11 12 11 9 9 9 9 8 9 9 9 7 7 6 4 -2 5 8 8 7 4 -1 -2 -8 -9 -11 -15 -16 -15 -15 -14 -13 -12 -10 -7 -3
13 13 12 12 12 13 12 12 12 11 10 9 9 8 8 9 9 8 7 7 6 5 -0 3 7 7 5 -7 -4 -5 -4 -9 -11 -14 -14 -13 -13 -12 -12 -10 -5 -1 1
12 13 14 12 13 12 12 10 12 11 11 10 9 9 7 9 10 8 7 6 6 5 1 1 5 3 3 -7 -7 -10 4 -0 -2 -9 -10 -8 -7 -6 -4 -1 1 3 4
10 12 13 12 12 12 12 12 12 12 11 11 10 10 10 10 9 8 8 7 6 5 2 2 3 1 1 -4 -7 -8 2 7 5 0 -4 -0 1 2 2 2 4 5 5
11 11 12 12 12 13 12 12 12 12 11 11 10 9 10 9 9 9 8 7 7 5 2 2 3 2 -1 -4 -5 -6 -5 7 7 5 2 4 5 6 6 5 6 6 6
10 11 11 12 12 13 13 12 12 11 11 10 10 9 9 9 9 8 9 8 6 6 6 5 3 1 -0 -3 -4 -5 -5 -2 7 7 6 6 6 7 6 6 5 5 5
9 11 11 12 12 12 12 12 11 12 11 9 9 9 9 8 8 8 8 8 7 7 6 6 5 6 6 -3 3 3 -3 -3 2 5 6 6 6 5 5 5 5 5 5
11 10 10 11 12 12 12 12 11 11 11 10 9 10 9 9 8 7 7 7 7 7 7 6 6 7 5 1 6 6 6 1 1 3 5 5 5 5 5 5 5 5 6
12 11 11 11 11 12 11 11 11 11 11 8 10 10 9 9 8 7 7 7 8 7 7 7 7 7 6 4 7 7 7 4 3 5 5 5 5 5 5 5 5 6 6
10 9 10 11 11 11 11 11 11 11 9 10 10 10 10 10 9 8 7 7 8 7 7 7 7 7 7 6 6 7 7 7 7 7 7 5 5 5 5 5 6 7 7
10 10 10 10 10 10 11 11 11 10 10 10 9 10 11 10 10 8 8 7 6 7 7 7 6 7 7 6 6 7 7 7 8 8 8 6 5 6 6 6 6 6 6
11 11 12 11 10 10 10 11 10 10 10 9 9 10 10 10 10 9 8 7 7 6 7 7 7 6 7 7 6 7 7 8 8 7 8 8 6 6 6 6 6 6 5
12 11 11 10 10 10 11 10 10 10 10 10 10 9 10 10 10 9 9 8 7 6 7 7 7 7 7 7 6 7 8 7 7 7 8 7 6 6 6 6 6 4 4
11 11 11 10 10 10 10 10 10 10 10 10 10 10 10 9 9 9 9 8 8 7 6 6 7 8 8 8 7 7 8 8 8 8 7 6 6 6 5 4 4 3 -0
9 10 11 11 11 10 10 10 10 10 10 10 9 9 9 9 10 9 9 9 8 8 7 6 6 8 8 8 8 7 8 7 7 7 6 4 5 4 3 2 0 -6 -5
9 10 10 11 11 9 10 9 9 8 9 9 9 9 9 9 9 9 9 9 9 9 8 7 7 7 8 8 7 7 5 6 6 5 3 4 3 2 1 -1 -8 -4 -9
9 9 10 11 11 10 9 9 9 9 9 9 9 9 9 9 9 9 9 9 9 9 8 7 7 7 7 7 7 6 5 6 5 4 3 1 1 -0 -1 -2 -3 -5 -7
9 10 10 11 11 11 9 8 8 9 9 10 10 9 9 9 9 9 9 9 8 8 9 8 7 7 7 7 7 6 5 5 3 2 1 1 -0 -2 -5 -7 -6 -7 -28
8 9 10 10 11 10 9 8 9 9 10 9 10 9 9 9 9 9 9 9 8 8 9 8 8 7 7 6 5 6 6 5 4 4 0 -1 -3 -6 -6 -7 -7 -16 -35
8 9 10 10 10 9 8 8 10 10 10 9 9 9 9 9 9 9 9 9 9 9 8 8 8 8 7 6 7 6 5 5 2 1 -1 -2 -6 -8 -6 -8 -21 -29 -31
7 7 9 10 10 9 8 8 8 8 9 9 9 9 9 9 9 8 8 8 9 8 8 8 7 7 7 7 6 6 4 4 0 -2 -2 -4 -5 -6 -10 -20 -24 -25 -23
5 7 8 10 10 9 8 7 8 8 9 9 9 9 9 8 8 8 7 9 8 8 7 7 7 6 6 6 5 4 4 3 0 -3 -4 -5 -5 -7 -19 -20 -21 -20 -19

GFSMA_850_dewp_138.txt.gz
Dewpoint
7 9 9 10 10 11 9 7 7 7 7 6 6 7 7 8 8 7 9 9 9 8 9 9 8 8 8 8 8 8 7 7 7 2 -3 -11 -21 -24 -21 -16 -11 -8 -5
6 8 9 10 10 11 10 8 7 6 5 6 7 7 7 8 7 8 8 9 9 8 8 9 9 8 9 8 8 8 7 7 7 4 -4 -14 -21 -22 -18 -13 -8 -6 -4
4 7 9 10 11 11 11 11 9 7 7 7 7 7 7 7 7 5 8 8 9 8 8 9 9 8 8 8 8 7 7 7 7 5 -8 -17 -20 -20 -16 -11 -8 -5 -4
3 4 6 8 10 11 11 11 11 8 8 8 8 7 7 7 7 7 7 8 8 8 7 8 8 8 8 7 7 7 7 7 7 6 -7 -16 -19 -19 -16 -11 -8 -6 -5
4 5 5 7 9 11 11 11 11 11 9 9 9 8 8 7 7 7 7 8 9 8 7 7 7 7 8 7 7 7 7 7 7 3 -10 -17 -20 -18 -15 -12 -9 -7 -6
6 7 7 8 9 10 11 11 12 12 11 10 10 9 9 8 9 9 8 8 9 8 7 6 5 5 7 7 7 7 7 7 7 6 -9 -17 -18 -17 -15 -13 -10 -7 -3
10 10 9 8 9 9 10 11 11 12 12 11 11 10 9 9 10 9 10 8 9 9 7 6 5 5 6 7 7 7 7 7 7 3 -12 -15 -15 -14 -13 -12 -9 -3 1
4 6 9 10 11 11 11 11 11 12 12 12 11 10 10 10 10 10 10 9 8 9 7 6 6 5 4 6 7 7 7 7 7 4 -14 -13 -13 -13 -12 -9 -2 1 3
7 8 8 10 9 11 12 12 11 9 10 10 12 11 10 9 9 9 9 9 9 9 8 7 6 6 5 6 6 6 7 7 7 -1 -12 -11 -10 -8 -6 -2 2 4 5
8 10 10 9 10 10 12 11 10 10 10 10 11 11 10 8 9 8 9 9 8 9 8 7 7 6 6 5 4 3 7 7 7 7 -1 -5 -4 -2 0 2 4 6 6
9 9 9 10 9 9 10 11 11 12 10 10 10 10 11 10 9 9 9 7 7 7 9 7 7 6 5 5 4 3 3 5 7 7 6 1 2 2 4 6 7 7 7
8 9 9 9 10 9 10 11 10 11 12 11 11 11 10 10 10 9 9 8 8 7 9 8 8 7 5 4 4 2 0 0 1 6 6 4 4 5 6 7 7 7 5
9 9 9 10 9 9 10 9 10 10 11 12 11 11 11 10 9 9 9 9 8 9 9 8 8 7 6 4 4 3 1 -0 1 3 6 6 6 7 7 7 7 5 5
9 9 10 10 10 9 10 10 10 10 11 11 11 12 11 10 9 9 9 9 9 9 9 8 8 8 6 5 4 2 2 1 0 1 6 6 7 7 7 7 6 5 6
9 11 11 10 10 11 10 10 11 10 11 11 11 11 12 11 11 11 10 9 9 8 8 8 8 8 7 6 5 5 5 1 3 1 1 4 6 6 6 6 6 6 6
8 9 10 11 10 10 10 10 10 11 11 12 11 11 12 11 10 11 10 10 10 9 9 8 8 8 7 6 6 6 6 4 6 6 4 2 3 5 6 6 6 6 6
7 8 8 9 10 10 10 10 10 10 10 10 11 11 11 10 11 11 8 9 10 9 9 8 8 8 8 7 7 7 6 4 7 7 7 4 3 5 7 7 7 6 6
4 7 8 9 9 10 10 10 11 10 10 11 11 11 9 10 10 9 9 10 10 10 9 9 8 8 8 8 7 7 7 5 6 6 7 7 7 7 7 7 7 6 6
0 4 7 8 9 10 11 11 11 10 10 11 12 11 10 10 8 8 10 10 10 10 9 9 8 8 8 8 8 7 7 7 6 6 6 7 7 7 7 7 6 5 5
-2 0 2 6 7 9 10 11 11 11 10 10 10 10 10 8 8 9 10 10 10 9 9 8 8 8 7 8 7 7 7 7 7 7 7 7 7 7 6 5 5 5 5
-2 -2 -0 2 6 9 10 10 10 11 10 9 9 9 9 9 9 9 10 9 9 9 9 8 7 7 6 6 7 7 7 6 6 6 6 7 6 5 4 3 3 4 3
-2 -2 -0 1 3 8 9 9 10 10 11 10 10 10 9 9 10 9 9 9 9 9 9 8 8 8 7 7 7 7 7 5 3 4 4 5 4 3 2 2 2 2 1
-2 -1 0 2 4 6 8 9 9 10 10 11 10 10 9 9 9 9 8 9 9 9 9 9 8 8 7 7 7 7 7 6 7 6 5 3 2 1 0 0 0 0 -1
-2 -1 0 1 2 5 7 8 9 10 10 10 10 10 8 9 9 9 9 9 9 8 9 9 8 8 8 8 8 7 6 6 5 4 4 1 0 -0 -1 -1 -2 -2 -3
-1 -0 0 1 2 2 5 7 8 9 10 9 8 9 8 9 10 8 9 9 9 9 8 9 9 8 8 8 8 6 6 5 2 2 2 1 -0 -2 -3 -2 -3 -4 -5
-1 -0 -0 1 2 2 3 6 8 9 8 9 6 8 9 8 9 8 9 9 9 9 8 9 8 8 7 6 6 6 7 6 4 1 1 0 1 -0 -5 -6 -5 -6 -6